Weather History for Panama City Tyndall AFB, FL

Change the Weather History Date:

Wednesday, October 3, 2012

  Actual Average Record
Temperature  
Mean Temperature 72 °F -  
Max Temperature 78 °F 80 °F 88 °F (2007)
Min Temperature 65 °F 65 °F 55 °F (2011)
Cooling Degree Days 6    
Growing Degree Days 22 (Base 50)    
Moisture  
Dew Point 70 °F    
Average Humidity 94    
Maximum Humidity 100    
Minimum Humidity 78    
Precipitation  
Precipitation 0.00 in - - ()
Sea Level Pressure  
Sea Level Pressure 30.10 in    
Wind  
Wind Speed 3 mph (ENE)    
Max Wind Speed 8 mph    
Max Gust Speed -    
Visibility 10 miles    
Events Rain    
Averages and records for this station are not official NWS values.
T = Trace of Precipitation, MM = Missing Value Source: NWS Daily Summary

Daily Weather History Graph

Daily Weather History Graph

Search for Another Location

Airport:

Trip Planner

Search our weather history database for the weather conditions in past years. The results will help you decide how hot, cold, wet, or windy it might be!

Date:

Astronomy

Oct. 03, 2012 Rise Set
Actual Time 6:37 AM CDT 6:24 PM CDT
Civil Twilight 6:13 AM CDT 6:48 PM CDT
Nautical Twilight 5:45 AM CDT 7:16 PM CDT
Astronomical Twilight 5:17 AM CDT 7:44 PM CDT
Moon 8:34 PM CDT (10/3) 9:42 AM CDT (10/3)
Length of Visible Light 12h 35m
Length of Day
11h 47m
Waning Gibbous, 88% of the Moon is Illuminated
Oct 3
Waning Gibbous
Oct 8
Last Quarter
Oct 15
New
Oct 21
First Quarter
Oct 29
Full

Hourly Weather History & Observations

Time (CDT) Temp. Dew Point Humidity Pressure Visibility Wind Dir Wind Speed Gust Speed Precip Events Conditions
12:55 AM 66.6 °F 66.4 °F 99% 30.01 in 10.0 mi Calm Calm - N/A   Mostly Cloudy
1:55 AM 66.7 °F 66.7 °F 100% 30.01 in 10.0 mi Calm Calm - N/A   Mostly Cloudy
2:55 AM 67.6 °F 67.6 °F 100% 30.01 in 10.0 mi Calm Calm - N/A   Overcast
3:55 AM 67.8 °F 67.8 °F 100% 30.02 in 10.0 mi NNE 5.8 mph - N/A   Mostly Cloudy
4:55 AM 67.3 °F 67.3 °F 100% 30.04 in 10.0 mi Calm Calm - N/A   Mostly Cloudy
5:55 AM 66.9 °F 66.9 °F 100% 30.06 in 10.0 mi North 3.5 mph - N/A   Scattered Clouds
6:55 AM 65.8 °F 65.8 °F 100% 30.07 in 10.0 mi NNE 4.6 mph - N/A   Clear
7:55 AM 67.8 °F 67.8 °F 100% 30.09 in 10.0 mi NE 4.6 mph - N/A   Clear
8:55 AM 72.5 °F 71.1 °F 95% 30.11 in 10.0 mi ENE 3.5 mph - N/A   Partly Cloudy
9:55 AM 74.1 °F 71.8 °F 92% 30.12 in 10.0 mi NNE 6.9 mph - N/A   Scattered Clouds
10:55 AM 76.1 °F 72.1 °F 87% 30.12 in 10.0 mi NNE 5.8 mph - N/A   Scattered Clouds
11:55 AM 77.9 °F 72.1 °F 82% 30.12 in 10.0 mi NNE 8.1 mph - N/A   Mostly Cloudy
12:55 PM 77.2 °F 72.3 °F 85% 30.10 in 10.0 mi NE 4.6 mph - N/A   Mostly Cloudy
1:55 PM 78.1 °F 70.9 °F 78% 30.09 in 10.0 mi ENE 4.6 mph - N/A   Mostly Cloudy
2:55 PM 78.6 °F 72.3 °F 81% 30.08 in 10.0 mi East 3.5 mph - N/A   Partly Cloudy
3:55 PM 77.2 °F 72.3 °F 85% 30.09 in 10.0 mi East 5.8 mph - N/A   Scattered Clouds
4:25 PM 77.0 °F 71.6 °F 83% 30.10 in 10.0 mi East 4.6 mph - N/A Rain Light Rain
4:36 PM 77.0 °F 71.6 °F 83% 30.09 in 10.0 mi East 5.8 mph - N/A   Scattered Clouds
4:55 PM 76.6 °F 73.2 °F 89% 30.10 in 10.0 mi East 4.6 mph - 0.00 in   Scattered Clouds
5:55 PM 75.0 °F 73.6 °F 95% 30.10 in 10.0 mi ENE 4.6 mph - N/A   Partly Cloudy
6:55 PM 73.8 °F 72.7 °F 96% 30.12 in 10.0 mi East 3.5 mph - N/A   Scattered Clouds
7:55 PM 72.7 °F 72.7 °F 100% 30.13 in 10.0 mi ESE 6.9 mph - N/A   Scattered Clouds
8:55 PM 71.4 °F 71.1 °F 99% 30.14 in 10.0 mi East 6.9 mph - N/A   Mostly Cloudy
9:55 PM 70.5 °F 70.5 °F 100% 30.15 in 10.0 mi East 5.8 mph - N/A   Partly Cloudy
10:55 PM 69.6 °F 69.6 °F 100% 30.15 in 10.0 mi ENE 6.9 mph - N/A   Clear
11:18 PM 69.8 °F 69.8 °F 100% 30.15 in 10.0 mi Variable 5.8 mph - N/A   Mostly Cloudy
11:22 PM 69.8 °F 69.8 °F 100% 30.15 in 10.0 mi East 5.8 mph - N/A   Mostly Cloudy
11:30 PM 69.8 °F 69.8 °F 100% 30.15 in 10.0 mi ENE 5.8 mph - N/A   Scattered Clouds
11:55 PM 69.3 °F 69.3 °F 100% 30.14 in 10.0 mi ENE 5.8 mph - N/A   Clear